Flag for US Virgin Islands Weather past 2 weeks in Charlotte Amalie, US Virgin Islands

Now
80 °F

Passing clouds.


Feels Like: 85 °F
Forecast: 79 / 85 °F
Wind: 7 mph from East

Location: Cyril E. King International Airport

Current Time: May 4, 2015 at 3:04:41 AM

Latest Report: May 4, 2015 at 1:53 AM


Visibility: 10 mi

Pressure: 30.00 "Hg

Humidity: 81%

Dew point: 74 °F

Location of Charlotte AmalieLocation

Historic Weather in Charlotte Amalie — Graph

°F

Charlotte Amalie temperature yesterday

Maximum temperature yesterday: 86 °F (at 11:53 AM)
Minimum temperature yesterday: 77 °F (at 3:53 AM)
Average temperature yesterday: 81 °F

Past Weeks' High & Low Weather Summary

 TemperatureHumidityPressure
High86 °F (Apr 25, 12:53 PM)88% (Apr 25, 2:26 PM)30.07 "Hg (Apr 25, 2:26 PM)
Low76 °F (Apr 21, 2:53 AM)57% (Apr 21, 8:53 AM)29.89 "Hg (Apr 27, 4:32 PM)
Average82 °F75%29.96 "Hg
* Reported Apr 19 1:53 AM — May 4 1:53 AM, Charlotte Amalie, Weather by CustomWeather, © 2015

Note: Actual official high and low records may vary slightly from our data, if they occured in-between our weather recording intervals... More about our weather records

Advertising

Charlotte Amalie weather history for previous 24 hours

 ConditionsComfort  
Time TempWeatherWind HumidityBarometerVisibility
1:53 AM
Mon, May 4
80 °FPassing clouds.7 mph81%30.00 "Hg10 mi
1:11 AM80 °FPartly cloudy.6 mph81%30.02 "Hg10 mi
12:53 AM80 °FPartly cloudy.7 mph81%30.02 "Hg10 mi
11:53 PM
Sun, May 3
80 °FPassing clouds.7 mph79%30.03 "Hg10 mi
10:53 PM80 °FPassing clouds.6 mph79%30.04 "Hg10 mi
9:53 PM80 °FPassing clouds.6 mph79%30.03 "Hg10 mi
8:53 PM81 °FPassing clouds.7 mph77%30.02 "Hg10 mi
7:53 PM82 °FPassing clouds.10 mph72%30.00 "Hg10 mi
6:53 PM82 °FPassing clouds.10 mph72%29.99 "Hg10 mi
5:53 PM83 °FSunny.12 mph68%29.97 "Hg10 mi
4:53 PM84 °FSunny.13 mph65%29.97 "Hg10 mi
3:53 PM85 °FSunny.13 mph63%29.96 "Hg10 mi
2:53 PM86 °FSunny.13 mph63%29.98 "Hg10 mi
1:53 PM86 °FSunny.14 mph63%29.99 "Hg10 mi
12:53 PM85 °FSunny.17 mph65%30.00 "Hg10 mi
11:53 AM86 °FPassing clouds.16 mph63%30.01 "Hg10 mi
10:53 AM85 °FSunny.17 mph68%30.02 "Hg10 mi
9:53 AM85 °FSunny.15 mph65%30.02 "Hg10 mi
8:53 AM84 °FSunny.15 mph67%30.01 "Hg10 mi
7:53 AM83 °FBroken clouds.15 mph72%30.00 "Hg10 mi
6:53 AM81 °FScattered clouds.13 mph77%29.98 "Hg10 mi
6:42 AM81 °FBroken clouds.10 mph79%29.97 "Hg10 mi
6:20 AM79 °FPartly sunny.8 mph84%29.96 "Hg10 mi
5:53 AM78 °FBroken clouds.6 mph87%29.95 "Hg10 mi
5:31 AM78 °FPassing clouds.5 mph84%29.95 "Hg10 mi
5:17 AM78 °FPartly cloudy.3 mph84%29.94 "Hg10 mi
5:01 AM79 °FLight rain. Mostly cloudy.3 mph79%29.94 "Hg9 mi
4:53 AM79 °FMostly cloudy.5 mph79%29.94 "Hg10 mi
3:53 AM77 °FClear.3 mph82%29.93 "Hg10 mi
Weather by CustomWeather, © 2015

See weather overviewHow to use our weather pages